Regional Weather Roundup
Issued by NWS Northern Indiana

Home | Current Version | Previous Version | Graphics & Text | Print | Product List | Glossary On
Versions: 1 2 3 4 5 6 7 8 9 10 11 12 13 14 15 16 17 18 19 20 21 22 23 24 25 26 27 28 29 30 31 32 33 34 35 36 37 38 39 40 41 42 43 44 45 46 47 48 49 50
343
ASUS43 KIWX 280100
RWRIWX

KIWX WEATHER ROUNDUP
NATIONAL WEATHER SERVICE NORTHERN INDIANA
900 PM EDT TUE SEP 27 2016

NOTE: "FAIR" INDICATES FEW OR NO CLOUDS BELOW 12,000 FEET WITH NO
SIGNIFICANT WEATHER AND/OR OBSTRUCTIONS TO VISIBILITY.

* THESE STATIONS ARE NOT UNDER NWS QUALITY CONTROL. THEY ALSO MAY NOT
  REPORT WEATHER SUCH AS PRECIPITATION OR FOG.

INZ001>027-280200-
NORTHERN INDIANA

CITY           SKY/WX    TMP DP  RH WIND       PRES   REMARKS
GARY*          MOCLDY    55  45  67 SW6       29.78R
SOUTH BEND     MOCLDY    56  46  69 SW5       29.79R
ELKHART*       CLEAR    N/A N/A N/A W6        29.78S
GOSHEN         CLOUDY    56  41  57 CALM      29.79R
ANGOLA*          N/A     52  41  66 CALM      29.79R
FORT WAYNE     PTCLDY    55  39  54 SW6       29.80R
PERU/GRISSOM   CLEAR     54  39  57 SW10      29.78R

$$
INZ028>050-280200-
CENTRAL INDIANA

CITY           SKY/WX    TMP DP  RH WIND       PRES   REMARKS
LAFAYETTE      CLEAR     57  43  59 CALM      29.80R
MUNCIE*        CLEAR     65  41  41 SW6       29.81S
INDIANAPOLIS   PTCLDY    63  47  55 SW9       29.82S

$$
MIZ043>046-050>051-056>058-064>065-071>073-077>080-280200-
SOUTHWEST LOWER MICHIGAN

CITY           SKY/WX    TMP DP  RH WIND       PRES   REMARKS
BATTLE CREEK   CLOUDY    58  48  69 N8        29.79R
BENTON HARBOR  CLOUDY    54  47  77 E6        29.78R
COLDWATER*     PTCLDY    54  45  71 CALM      29.79R
HILLSDALE*     PTCLDY    54  43  66 CALM      29.79R
HOLLAND        LGT RAIN  57  49  74 NW7       29.79R
GRAND RAPIDS   CLOUDY    55  48  77 SW7       29.79R
KALAMAZOO      CLOUDY    58  46  64 N6        29.79S
STURGIS*       CLOUDY    54  44  67 CALM      29.78R
THREE RIVERS*  FAIR      59  45  61 N3        29.79R

$$
OHZ001>008-015>018-024>025-280200-
NORTHWEST OHIO

CITY           SKY/WX    TMP DP  RH WIND       PRES   REMARKS
DEFIANCE       CLEAR     54  43  66 CALM      29.79R
FINDLAY        CLEAR     54  39  57 S9        29.80R
TOLEDO EXPRESS CLEAR     52  48  86 CALM      29.79R
TOLEDO METCALF CLEAR     59  42  53 CALM      29.80R
LIMA           CLEAR     57  44  62 CALM      29.82R

$$
AND FOR LAKE MICHIGAN COASTAL AND OPEN LAKE BUOY OBSERVATIONS

STATION/POSITION TEMP    WIND        PRES    VSBY  WAVE
                 AIR SEA DIR/SP/G                  HT/PER
                 (F)     (DEG/KT/KT) (MB)    (MI)  (FT/S)
CALUMET HARBOR    65     270/  2/  5 1007.7S
MICHIGAN CITY     67     250/ 23/ 25   N/A
BURNS HARBOR      67     280/ 12/ 17 1008.8R
SAINT JOSEPH      62      10/  8/ 11 1008.8
SOUTH LAKE BUOY   59 70  320/ 16/ 19 1007.5          3/ 5
4 MI NW BRIDGMAN  64 67   20/ 10/ 14 1008.1R         4/ 5
MICHIGAN CITY     67 67  280/ 16/ 21   N/A           5/ 4

$$
&&




USA.gov is the U.S. government's official web portal to all federal, state and local government web resources and services.